Regen radar Meer informatie rain snow radar


Bezoek onze andere website:

Template documentation
and downloads

And another site



Weather Underground Historische gegevens

Dagelijkse Samenvatting oktober 19, 2018 Eenheden:  Metrisch    Engels   Beide
« Vorige Dag
Volgende Dag »
Dagelijkse Wekelijkse Maandelijkse Jaarlijkse Aangepaste
  Huidig: Hoog: Laag: Gemiddeld:
Temperatuur: -12.8 °C -17.8 °C -12.8 °C -12.6 °C
Dauwpunt: -14.1 °C -17.8 °C -14.2 °C -13.9 °C
Vochtigheid: 85 % Humidity % 84 % 83 %
Wind snelheid: 10.3 km/h 0 km/h 2.3 km/h 7.4 km/h
Windvlaag: 12.9 km/h 0 km/h - -
Wind:NNE - - ENE
Luchtdruk: 34703.1 hPa 0 hPa 34693 hPa -
Neerslag: 0 mm      
Historical Graphs
 
 
Tabel voor oktober 19, 2018
Tijd Temperatuur Dauwpunt Luchtdruk Wind Wind snelheid Windvlaag Vochtigheid Regenval per uur
-17.8 °C -17.8 °C 0 hPa Calm     Humidity % 0 mm
00:04 -12.3 °C -13.5 °C 34703.1 hPa NE 7.6 km/h 10.3 km/h 86 % 0 mm
00:09 -12.3 °C -13.5 °C 34703.1 hPa NE 2.3 km/h 10.3 km/h 86 % 0 mm
00:14 -12.3 °C -13.6 °C 34716.7 hPa NE 2.3 km/h 10.3 km/h 86 % 0 mm
00:19 -12.3 °C -13.6 °C 34716.7 hPa NE 5.1 km/h 7.7 km/h 86 % 0 mm
00:24 -12.3 °C -13.6 °C 34703.1 hPa NE 10.3 km/h 10.3 km/h 86 % 0 mm
00:29 -12.4 °C -13.6 °C 34703.1 hPa NE 7.6 km/h 7.7 km/h 87 % 0 mm
00:34 -12.4 °C -13.6 °C 34703.1 hPa NE 5.1 km/h 12.9 km/h 87 % 0 mm
00:39 -12.4 °C -13.6 °C 34703.1 hPa ENE 5.1 km/h 12.9 km/h 87 % 0 mm
00:44 -12.4 °C -13.6 °C 34703.1 hPa NE 7.6 km/h 15.6 km/h 87 % 0 mm
00:49 -12.3 °C -13.6 °C 34703.1 hPa NE 7.6 km/h 18.2 km/h 86 % 0 mm
00:54 -12.3 °C -13.6 °C 34703.1 hPa East 5.1 km/h 18.2 km/h 85 % 0 mm
00:59 -12.2 °C -13.5 °C 34703.1 hPa NE 10.3 km/h 15.6 km/h 85 % 0 mm
01:04 -12.1 °C -13.6 °C 34703.1 hPa NE 15.6 km/h 18.2 km/h 84 % 0 mm
01:09 -12.1 °C -13.6 °C 34703.1 hPa East 5.1 km/h 15.6 km/h 84 % 0 mm
01:14 -12.2 °C -13.6 °C 34703.1 hPa ENE 7.6 km/h 12.9 km/h 84 % 0 mm
01:19 -12.2 °C -13.7 °C 34716.7 hPa NE 10.3 km/h 15.6 km/h 84 % 0 mm
01:24 -12.3 °C -13.7 °C 34716.7 hPa ENE 7.6 km/h 15.6 km/h 84 % 0 mm
01:29 -12.3 °C -13.7 °C 34716.7 hPa ENE 10.3 km/h 10.3 km/h 84 % 0 mm
01:34 -12.3 °C -13.8 °C 34716.7 hPa East 5.1 km/h 15.6 km/h 84 % 0 mm
01:39 -12.3 °C -13.7 °C 34703.1 hPa ENE 17.9 km/h 23.3 km/h 85 % 0 mm
01:44 -12.4 °C -13.8 °C 34703.1 hPa East 10.3 km/h 18.2 km/h 84 % 0 mm
01:49 -12.4 °C -13.8 °C 34703.1 hPa East 7.6 km/h 15.6 km/h 85 % 0 mm
01:54 -12.4 °C -13.8 °C 34703.1 hPa ESE 2.3 km/h 10.3 km/h 85 % 0 mm
01:59 -12.5 °C -13.9 °C 34703.1 hPa East 5.1 km/h 12.9 km/h 84 % 0 mm
02:04 -12.6 °C -14 °C 34703.1 hPa ENE 12.7 km/h 12.9 km/h 84 % 0 mm
02:09 -12.6 °C -14 °C 34703.1 hPa East 7.6 km/h 15.6 km/h 84 % 0 mm
02:14 -12.6 °C -14 °C 34703.1 hPa East 5.1 km/h 12.9 km/h 84 % 0 mm
02:19 -12.6 °C -14.1 °C 34703.1 hPa ENE 7.6 km/h 12.9 km/h 84 % 0 mm
02:24 -12.6 °C -14.1 °C 34703.1 hPa ENE 7.6 km/h 10.3 km/h 84 % 0 mm
02:29 -12.7 °C -14.1 °C 34703.1 hPa NE 10.3 km/h 18.2 km/h 84 % 0 mm
02:34 -12.7 °C -14.1 °C 34703.1 hPa NE 5.1 km/h 12.9 km/h 84 % 0 mm
02:39 -12.7 °C -14.1 °C 34703.1 hPa NE 10.3 km/h 12.9 km/h 84 % 0 mm
02:44 -12.7 °C -14.1 °C 34703.1 hPa East 12.7 km/h 15.6 km/h 84 % 0 mm
02:49 -12.7 °C -14.1 °C 34703.1 hPa ENE 5.1 km/h 12.9 km/h 84 % 0 mm
02:54 -12.7 °C -14.2 °C 34703.1 hPa NE 7.6 km/h 15.6 km/h 84 % 0 mm
02:59 -12.7 °C -14.1 °C 34703.1 hPa ENE 7.6 km/h 12.9 km/h 84 % 0 mm
03:04 -12.7 °C -14.1 °C 34703.1 hPa NE 5.1 km/h 10.3 km/h 84 % 0 mm
03:09 -12.7 °C -14.2 °C 34703.1 hPa NE 10.3 km/h 12.9 km/h 84 % 0 mm
03:14 -12.7 °C -14.2 °C 34703.1 hPa NE 5.1 km/h 7.7 km/h 84 % 0 mm
03:19 -12.8 °C -14.1 °C 34693 hPa NE 2.3 km/h 12.9 km/h 85 % 0 mm
03:24 -12.8 °C -14.1 °C 34703.1 hPa NNE 10.3 km/h 12.9 km/h 85 % 0 mm
Nieuwerkerk ad IJssel Veldenbuurt
Gegevens verzameld door Weather Underground - 1.5 mb

Script ontwikkeld door  Jim McMurry - jmcmurry@mwt.net Aangepast voor de template door  Wim van der Kuil - Leuven-Template.eu

U vindt ons ook hier:

Het Weer Aktueel

Weather Underground

Apparatuur in gebruik:

Weercomputer
apple

Webleverancier
weservit

apple

weservit